#timestamp,LO_Frequency,Hit,StdDev 
1561579215.5,286047189.7,P
1561579235.4,286047189.7,N
1561579255.2,286047189.2,N
1561579275.0,286047189.4,N
1561579275.9,286047189.4,N
1561579295.8,286047187.5,N
1561579315.6,286047189.1,N
1561579335.4,286047189.5,N
1561579355.3,286047189.6,N
1561579375.1,286047190.0,N
1561579395.9,286047189.9,N
1561579415.7,286047189.9,N
1561579435.5,286047189.5,N
1561579455.4,286047189.7,N
1561579475.2,286047189.7,N
1561579495.0,286047189.4,N
1561579495.9,286047189.4,N
1561579515.8,286047191.5,N
1561579535.6,286047191.5,N
1561579555.5,286047191.5,N
1561579575.3,286047191.2,N
1561579595.1,286047190.9,N
1561579615.9,286047191.6,N
1561579635.7,286047193.1,N
1561579655.5,286047191.9,N
1561579675.4,286047190.1,N
1561579695.2,286047192.0,N
1561579715.1,286047192.5,N
1561579716.0,286047192.5,N
1561579735.8,286047193.4,N
1561579755.6,286047195.5,Y
1561579775.5,286047005.1,P
1561579795.3,286047005.5,N
1561579815.2,286047007.2,N
1561579835.9,286047009.0,N
1561579855.7,286047010.4,N
1561579875.6,286047008.1,N
1561579895.4,286047010.2,N
1561579915.2,286047009.9,N
1561579935.1,286047009.7,N
1561579936.0,286047009.7,N
1561579955.8,286047012.3,N
1561579975.7,286047012.0,N
1561579995.5,286047011.3,N
1561580015.3,286047011.6,N
1561580035.2,286047013.9,N
1561580055.0,286047011.0,N
1561580055.9,286047011.0,N
1561580075.7,286047013.2,N
1561580095.6,286047012.8,N
1561580115.4,286047012.8,N
1561580135.3,286047014.3,N
1561580155.1,286047014.4,N
1561580156.0,286047014.4,N
1561580175.8,286047014.2,N
1561580195.7,286047017.2,N
1561580215.5,286047016.9,N
1561580235.3,286047015.7,N
1561580255.2,286047015.7,N
1561580275.0,286047015.8,N
1561580275.9,286047015.8,N
1561580295.8,286047019.6,Y
1561580315.6,286047009.0,P
1561580335.4,286047006.4,P
1561580355.3,286047008.6,P
1561580375.1,286047007.3,Y
1561580395.9,286046997.2,P
1561580415.7,286046996.8,N
1561580435.5,286046997.0,N
1561580455.4,286047000.1,N
1561580475.2,286046999.8,N
1561580495.0,286046998.2,N
1561580495.9,286046998.2,N
1561580515.8,286047001.1,N
1561580535.6,286047002.6,N
1561580555.5,286047001.4,N
1561580575.3,286047001.9,N
1561580595.1,286047002.5,N
1561580615.9,286047004.1,N
1561580635.7,286047001.3,N
1561580655.5,286047004.4,N
1561580675.4,286047002.7,N
1561580695.2,286047002.1,N
1561580715.1,286047000.2,N
1561580716.0,286047000.2,N
1561580735.8,286047002.7,N
1561580755.6,286047000.4,N
1561580775.5,286047002.6,N
1561580795.3,286046999.7,N
1561580815.1,286047002.1,N
1561580835.9,286047001.4,N
1561580855.7,286047001.3,N
1561580875.6,286047001.5,N
1561580895.4,286047002.5,N
1561580915.2,286047002.6,N
1561580935.1,286047002.1,N
1561580936.0,286047002.1,N
1561580955.8,286047002.2,N
1561580975.6,286047002.4,N
1561580995.5,286047002.8,N
1561581015.3,286047000.1,N
1561581035.2,286047002.8,N
1561581055.9,286047002.2,N
1561581075.7,286047000.4,N
1561581095.6,286047002.8,N
1561581115.4,286047002.4,N
1561581135.2,286047001.8,N
1561581155.1,286047002.6,N
1561581156.0,286047002.6,N
1561581175.8,286047001.6,N
1561581195.7,286047001.9,N
1561581215.5,286047002.4,N
1561581235.3,286047001.6,N
1561581255.2,286047004.4,Y
1561581275.0,286047000.2,P
1561581275.9,286047000.2,N
1561581295.8,286047002.5,P
1561581315.6,286046999.7,N
1561581335.4,286047002.8,N
1561581355.3,286047002.4,N
1561581375.1,286047001.4,N
1561581395.8,286047004.4,Y
1561581415.7,286047002.0,P
1561581435.5,286046999.7,N
1561581455.4,286047002.5,N
1561581475.2,286047001.5,N
1561581495.0,286047004.3,Y
1561581495.9,286047004.3,P
1561581515.8,286047001.9,N
1561581535.6,286047003.2,N
1561581555.5,286047003.5,Y
1561581575.3,286047002.3,P
1561581595.1,286047000.1,N
1561581615.9,286046998.2,N
1561581635.7,286046998.1,N
1561581655.6,286046998.5,N
1561581675.4,286047000.3,N
1561581695.2,286047000.7,N
1561581715.1,286047002.6,N
1561581716.0,286047002.6,N
1561581735.8,286047002.4,N
1561581755.7,286046999.8,N
1561581775.5,286047002.6,N
1561581795.3,286047002.7,N
1561581815.2,286047002.2,N
1561581835.0,286047002.3,N
1561581835.9,286047002.3,N
1561581855.7,286047002.1,N
1561581875.6,286047000.3,N
1561581895.4,286047002.3,N
1561581915.3,286047002.8,N
1561581935.1,286047004.2,N
1561581936.0,286047004.2,N
1561581955.8,286047004.1,N
1561581975.7,286047001.8,N
1561581995.5,286047001.6,N
1561582015.3,286047004.2,N
1561582035.2,286047003.3,N
1561582055.0,286047003.6,N
1561582055.9,286047003.6,N
1561582075.8,286047003.8,N
1561582095.6,286047003.6,N
1561582115.4,286047003.1,N
1561582135.3,286047002.9,N
1561582155.1,286047003.7,N
1561582175.9,286047006.0,Y
1561582195.7,286047001.4,P
1561582215.5,286047002.2,P
1561582235.4,286047001.7,P
1561582255.2,286047004.2,Y
1561582275.0,286047001.6,P
1561582275.9,286047001.6,P
1561582295.8,286047004.4,P
1561582315.6,286047001.3,N
1561582335.5,286047003.7,Y
1561582355.3,286047002.0,P
1561582375.1,286047000.0,N
1561582395.9,286047002.6,N
1561582415.7,286047002.0,N
1561582435.5,286047001.6,N
1561582455.4,286047001.7,N
1561582475.2,286047001.8,N
1561582495.1,286047004.1,Y
1561582496.0,286047004.1,P
1561582515.8,286047002.4,N
1561582535.6,286046999.8,N
1561582555.5,286047004.4,N
1561582575.3,286047002.2,N
1561582595.1,286047002.5,N
1561582615.9,286047002.6,N
1561582635.7,286046999.8,N
1561582655.6,286047001.5,N
1561582675.4,286047003.7,N
1561582695.2,286047003.7,N
1561582715.1,286047002.5,N
1561582716.0,286047002.5,N
1561582735.8,286047002.6,N
1561582755.7,286047002.8,N
1561582775.5,286047004.4,Y
1561582795.3,286047002.0,P
